When you browse on this site, cookies collect data to enhance your experience and personalize the content and advertising you see.
Visit our Privacy Policy to learn more. By continuing to use the site, you agree to this use of cookies and data.
  • In Hungary
  • List of Countries
  • For 7 days
  • Water Temperature
  • Satellite Maps
  • Weather Map
  • News
  • Weather Widgets
  • user-avatar
    Login

    Hourly Weather Zakynthos

    Today, 11 December, Tuesday

    Time Temperature Precipitation Wind Pressure Humidity
    00:00 +10°C° 0.3 mm 4 mps 754 mmHg 77%
    01:00 +10°C° 0 mm 4 mps 753 mmHg 81%
    02:00 +10°C° 1.1 mm 4 mps 753 mmHg 81%
    03:00 +10°C° 1.1 mm 4 mps 753 mmHg 80%
    04:00 +10°C° 1.1 mm 4 mps 753 mmHg 80%
    05:00 +10°C° 0.5 mm 4 mps 753 mmHg 80%
    06:00 +10°C° 0.5 mm 4 mps 754 mmHg 80%
    07:00 +10°C° 0 mm 4 mps 753 mmHg 80%
    08:00 +10°C° 0.6 mm 4 mps 754 mmHg 76%
    09:00 +11°C° 0.6 mm 4 mps 754 mmHg 72%
    10:00 +12°C° 0.6 mm 4 mps 754 mmHg 69%
    11:00 +12°C° 0.3 mm 5 mps 755 mmHg 68%
    12:00 +12°C° 0.3 mm 5 mps 755 mmHg 68%
    13:00 +12°C° 0.3 mm 5 mps 755 mmHg 68%
    14:00 +10°C° 0.1 mm 5 mps 755 mmHg 70%
    15:00 +10°C° 0.1 mm 6 mps 755 mmHg 72%
    16:00 +9°C° 0.1 mm 6 mps 756 mmHg 74%
    17:00 +8°C° 0.1 mm 6 mps 756 mmHg 75%
    18:00 +8°C° 0.1 mm 6 mps 756 mmHg 76%
    19:00 +6°C° 0.1 mm 7 mps 757 mmHg 77%
    20:00 +6°C° 0.1 mm 7 mps 757 mmHg 77%
    21:00 +6°C° 0.1 mm 7 mps 758 mmHg 77%
    22:00 +6°C° 0.1 mm 7 mps 758 mmHg 78%
    23:00 +6°C° 0 mm 7 mps 758 mmHg 77%

    Tomorrow, 12 December, Wednesday

    Time Temperature Precipitation Wind Pressure Humidity
    00:00 +6°C° 0 mm 7 mps 758 mmHg 77%
    01:00 +5°C° 0 mm 7 mps 759 mmHg 77%
    02:00 +5°C° 0 mm 6 mps 759 mmHg 78%
    03:00 +5°C° 0 mm 6 mps 759 mmHg 79%
    04:00 +5°C° 0 mm 6 mps 759 mmHg 79%
    05:00 +6°C° 0 mm 5 mps 759 mmHg 80%
    06:00 +5°C° 0 mm 5 mps 760 mmHg 81%
    07:00 +5°C° 0 mm 4 mps 760 mmHg 82%
    08:00 +7°C° 0 mm 4 mps 760 mmHg 72%
    09:00 +10°C° 0 mm 3 mps 761 mmHg 62%
    10:00 +12°C° 0 mm 2 mps 761 mmHg 53%
    11:00 +13°C° 0 mm 2 mps 761 mmHg 51%
    12:00 +13°C° 0 mm 1 mps 760 mmHg 50%
    13:00 +14°C° 0 mm 1 mps 760 mmHg 49%
    14:00 +12°C° 0 mm 1 mps 760 mmHg 54%
    15:00 +11°C° 0 mm 1 mps 760 mmHg 59%
    16:00 +10°C° 0 mm 1 mps 760 mmHg 64%
    17:00 +10°C° 0 mm 1 mps 760 mmHg 66%
    18:00 +9°C° 0 mm 1 mps 760 mmHg 68%
    19:00 +9°C° 0 mm 1 mps 761 mmHg 69%
    20:00 +8°C° 0 mm 2 mps 761 mmHg 68%
    21:00 +8°C° 0 mm 2 mps 761 mmHg 68%
    22:00 +8°C° 0 mm 3 mps 761 mmHg 67%
    23:00 +8°C° 0 mm 3 mps 760 mmHg 65%

    Day after tomorrow, 13 December, Thursday

    Time Temperature Precipitation Wind Pressure Humidity
    00:00 +7°C° 0 mm 4 mps 760 mmHg 62%
    01:00 +8°C° 0 mm 5 mps 760 mmHg 60%
    02:00 +8°C° 0.3 mm 5 mps 759 mmHg 60%
    03:00 +8°C° 0.3 mm 6 mps 759 mmHg 60%
    04:00 +6°C° 0.3 mm 7 mps 758 mmHg 60%
    05:00 +6°C° 3.7 mm 7 mps 758 mmHg 67%
    06:00 +6°C° 3.7 mm 8 mps 757 mmHg 73%
    07:00 +5°C° 3.7 mm 8 mps 757 mmHg 79%
    08:00 +5°C° 3.4 mm 7 mps 757 mmHg 81%
    09:00 +5°C° 3.4 mm 7 mps 757 mmHg 83%
    10:00 +5°C° 3.4 mm 7 mps 757 mmHg 84%
    11:00 +8°C° 0.2 mm 6 mps 757 mmHg 80%
    12:00 +9°C° 0.2 mm 5 mps 756 mmHg 76%
    13:00 +10°C° 0.2 mm 5 mps 756 mmHg 73%
    14:00 +11°C° 0 mm 4 mps 756 mmHg 75%
    15:00 +11°C° 0 mm 3 mps 756 mmHg 77%
    16:00 +11°C° 0 mm 3 mps 756 mmHg 79%
    17:00 +10°C° 0 mm 3 mps 756 mmHg 82%
    18:00 +10°C° 0 mm 3 mps 756 mmHg 85%
    19:00 +10°C° 0 mm 3 mps 757 mmHg 88%
    20:00 +10°C° 0.1 mm 3 mps 757 mmHg 89%
    21:00 +10°C° 0.1 mm 3 mps 757 mmHg 90%
    22:00 +9°C° 0.1 mm 3 mps 757 mmHg 91%
    23:00 +10°C° 0.5 mm 4 mps 757 mmHg 91%

    14 December, Friday

    Time Temperature Precipitation Wind Pressure Humidity
    00:00 +10°C° 0.5 mm 4 mps 757 mmHg 90%
    01:00 +10°C° 0.5 mm 4 mps 757 mmHg 90%
    02:00 +10°C° 0.6 mm 4 mps 756 mmHg 90%
    03:00 +11°C° 0.6 mm 4 mps 756 mmHg 90%
    04:00 +11°C° 0.6 mm 4 mps 756 mmHg 89%
    05:00 +10°C° 0.5 mm 5 mps 757 mmHg 89%
    06:00 +10°C° 0.5 mm 5 mps 757 mmHg 89%
    07:00 +12°C° 0.5 mm 5 mps 757 mmHg 89%
    08:00 +13°C° 0.3 mm 5 mps 757 mmHg 85%
    09:00 +14°C° 0.3 mm 6 mps 757 mmHg 81%
    10:00 +15°C° 0.3 mm 6 mps 757 mmHg 77%
    11:00 +16°C° 0.2 mm 6 mps 757 mmHg 74%
    12:00 +17°C° 0.2 mm 7 mps 757 mmHg 70%
    13:00 +17°C° 0.2 mm 7 mps 756 mmHg 67%
    14:00 +16°C° 0.1 mm 7 mps 756 mmHg 70%
    15:00 +15°C° 0.1 mm 7 mps 756 mmHg 74%
    16:00 +14°C° 0.1 mm 7 mps 756 mmHg 77%
    17:00 +12°C° 0.1 mm 8 mps 756 mmHg 78%
    18:00 +12°C° 0.1 mm 8 mps 756 mmHg 80%
    19:00 +11°C° 0.1 mm 9 mps 756 mmHg 81%
    20:00 +11°C° 0.2 mm 9 mps 756 mmHg 80%
    21:00 +9°C° 0.2 mm 10 mps 756 mmHg 79%
    22:00 +9°C° 0.2 mm 10 mps 755 mmHg 79%
    23:00 +9°C° 0.5 mm 10 mps 755 mmHg 78%

    15 December, Saturday

    Time Temperature Precipitation Wind Pressure Humidity
    00:00 +9°C° 0.5 mm 10 mps 755 mmHg 78%
    01:00 +9°C° 0.5 mm 10 mps 754 mmHg 77%
    02:00 +11°C° 0.6 mm 10 mps 754 mmHg 75%
    03:00 +11°C° 0.6 mm 10 mps 753 mmHg 74%
    04:00 +11°C° 0.6 mm 10 mps 753 mmHg 72%
    05:00 +11°C° 0.6 mm 10 mps 753 mmHg 72%
    06:00 +11°C° 0.6 mm 10 mps 753 mmHg 72%
    07:00 +11°C° 0.6 mm 10 mps 752 mmHg 72%
    08:00 +12°C° 0.2 mm 11 mps 752 mmHg 69%
    09:00 +13°C° 0.2 mm 11 mps 752 mmHg 66%
    10:00 +14°C° 0.2 mm 12 mps 752 mmHg 63%
    11:00 +14°C° 0.9 mm 11 mps 752 mmHg 69%
    12:00 +13°C° 0.9 mm 9 mps 751 mmHg 75%
    13:00 +12°C° 0.9 mm 8 mps 751 mmHg 81%
    14:00 +12°C° 0.8 mm 8 mps 751 mmHg 82%
    15:00 +11°C° 0.8 mm 7 mps 750 mmHg 83%
    16:00 +11°C° 0.8 mm 6 mps 750 mmHg 84%
    17:00 +12°C° 0.3 mm 5 mps 751 mmHg 84%
    18:00 +10°C° 0.3 mm 5 mps 751 mmHg 83%
    19:00 +10°C° 0.3 mm 5 mps 751 mmHg 83%
    20:00 +10°C° 0.2 mm 5 mps 751 mmHg 83%
    21:00 +10°C° 0.2 mm 5 mps 751 mmHg 83%
    22:00 +10°C° 0.2 mm 5 mps 751 mmHg 83%
    23:00 +10°C° 0 mm 5 mps 751 mmHg 83%

    16 December, Sunday

    Time Temperature Precipitation Wind Pressure Humidity
    00:00 +10°C° 0 mm 5 mps 751 mmHg 83%
    01:00 +10°C° 0 mm 5 mps 751 mmHg 83%
    02:00 +9°C° 0.1 mm 5 mps 751 mmHg 83%
    03:00 +9°C° 0.1 mm 5 mps 751 mmHg 83%
    04:00 +9°C° 0.1 mm 5 mps 751 mmHg 83%
    05:00 +9°C° 0.2 mm 5 mps 751 mmHg 82%
    06:00 +9°C° 0.2 mm 5 mps 752 mmHg 82%
    07:00 +9°C° 0.2 mm 5 mps 752 mmHg 81%
    08:00 +10°C° 0.2 mm 5 mps 752 mmHg 76%
    09:00 +13°C° 0.2 mm 5 mps 753 mmHg 70%
    10:00 +15°C° 0.2 mm 5 mps 753 mmHg 64%
    11:00 +17°C° 0.1 mm 4 mps 753 mmHg 61%
    12:00 +17°C° 0.1 mm 4 mps 754 mmHg 58%
    13:00 +18°C° 0.1 mm 3 mps 754 mmHg 54%
    14:00 +17°C° 0 mm 3 mps 754 mmHg 58%
    15:00 +16°C° 0 mm 3 mps 754 mmHg 63%
    16:00 +14°C° 0 mm 3 mps 755 mmHg 67%
    17:00 +13°C° 0 mm 4 mps 756 mmHg 70%
    18:00 +12°C° 0 mm 4 mps 756 mmHg 73%
    19:00 +12°C° 0 mm 5 mps 757 mmHg 76%
    20:00 +10°C° 0 mm 5 mps 757 mmHg 77%
    21:00 +10°C° 0 mm 5 mps 758 mmHg 78%
    22:00 +10°C° 0 mm 5 mps 758 mmHg 79%
    23:00 +10°C° 0 mm 5 mps 759 mmHg 79%
    Show more